CDT,Max TemperatureF,Mean TemperatureF,Min TemperatureF,Max Dew PointF,MeanDew PointF,Min DewpointF,Max Humidity, Mean Humidity, Min Humidity, Max Sea Level PressureIn, Mean Sea Level PressureIn, Min Sea Level PressureIn, Max VisibilityMiles, Mean VisibilityMiles, Min VisibilityMiles, Max Wind SpeedMPH, Mean Wind SpeedMPH, Max Gust SpeedMPH,PrecipitationIn, CloudCover, Events, WindDirDegrees
2013-9-1,81,68,55,58,52,48,85,59,32,30.12,30.08,30.01,10,10,10,16,8,22,0.00,0,,339
2013-9-2,87,68,51,61,56,50,97,65,32,30.14,30.08,30.02,10,10,10,13,4,,0.00,0,,157
2013-9-3,91,76,62,61,58,54,84,60,29,30.04,30.01,29.97,10,10,10,22,12,26,0.00,0,,176
2013-9-4,90,79,68,70,62,58,81,58,37,30.11,30.06,30.01,10,10,5,22,12,25,0.15,2,Rain-Thunderstorm,157
2013-9-5,92,78,64,67,62,59,86,61,33,30.13,30.08,30.04,10,10,10,17,9,21,0.00,0,,159
2013-9-6,100,84,68,72,62,57,78,55,24,30.05,29.96,29.89,10,10,10,17,11,23,0.00,0,,170
2013-9-7,91,82,72,71,68,64,92,66,42,30.05,29.99,29.91,10,10,7,20,8,17,0.01,0,Rain,59
2013-9-8,95,82,68,71,68,62,100,72,33,30.01,29.90,29.76,10,7,1,15,9,21,0.00,3,,128
2013-9-9,87,74,62,66,60,54,87,59,32,29.95,29.84,29.76,10,10,5,17,8,21,0.00,1,,321
2013-9-10,80,70,62,65,63,59,99,81,50,30.15,30.06,29.96,10,10,5,9,4,,0.03,4,Rain-Thunderstorm,323
2013-9-11,82,69,56,63,57,52,99,67,35,30.22,30.18,30.14,10,10,5,8,4,,0.00,0,,58
2013-9-12,79,66,54,56,50,44,91,61,29,30.33,30.27,30.22,10,10,1,13,4,16,0.00,0,,88
2013-9-13,78,62,47,51,46,42,90,58,29,30.26,30.15,30.03,10,10,5,16,7,21,0.00,1,,168
2013-9-14,81,71,61,65,55,49,93,60,46,30.02,29.90,29.81,10,10,10,24,14,32,0.00,3,Rain,196
2013-9-15,64,60,56,62,56,53,97,88,78,30.31,30.17,29.94,10,10,7,18,12,24,0.00,8,,20
2013-9-16,68,58,49,55,51,49,97,76,50,30.31,30.24,30.12,10,10,10,17,7,23,0.00,7,,150
2013-9-17,81,68,56,66,59,53,94,80,52,30.11,29.91,29.77,10,10,7,18,14,26,0.00,5,,174
2013-9-18,95,78,62,67,62,54,98,67,25,29.77,29.69,29.64,10,10,4,15,10,21,0.00,0,,187
2013-9-19,74,62,49,62,50,44,95,70,44,30.14,29.96,29.67,10,10,4,22,14,31,0.31,3,Rain-Thunderstorm,327
2013-9-20,72,56,42,46,41,36,91,63,27,30.15,30.09,30.01,10,10,10,14,6,22,0.00,0,,291
2013-9-21,85,65,45,55,48,42,90,59,27,30.03,29.88,29.75,10,10,5,20,9,23,0.00,0,,172
2013-9-22,86,72,57,54,53,51,84,56,31,29.75,29.68,29.61,10,10,10,30,14,40,0.00,0,,170
2013-9-23,73,65,57,58,51,47,97,64,43,29.85,29.67,29.59,10,10,7,22,16,29,0.18,3,Rain,158
2013-9-24,74,62,51,57,49,39,99,69,28,30.03,29.95,29.85,10,10,7,17,11,21,0.00,2,,343
2013-9-25,79,65,51,56,52,50,97,68,37,29.93,29.75,29.57,10,10,10,26,13,37,0.00,0,,157
2013-9-26,78,67,57,55,54,52,85,63,44,29.73,29.66,29.53,10,10,10,26,15,36,0.00,0,,52
2013-9-27,61,54,47,52,47,43,99,79,66,29.86,29.79,29.71,10,9,2,20,12,26,0.63,4,Rain-Thunderstorm,344
2013-9-28,66,54,42,46,40,32,97,68,27,30.01,29.96,29.85,10,10,5,22,11,26,0.11,2,Rain,272
2013-9-29,82,64,47,44,39,32,78,46,16,29.99,29.86,29.73,10,10,10,28,12,33,0.00,0,,215
2013-9-30,88,72,57,47,40,33,66,36,14,29.80,29.70,29.62,10,10,10,24,14,34,0.00,0,,232